Regional Weather Roundup
Issued by NWS

Home | Current Version | Previous Version | Graphics & Text | Print | Product List | Glossary On
Versions: 1 2 3 4 5 6 7 8 9 10 11 12 13 14 15 16 17 18 19 20 21 22 23 24 25 26 27 28 29 30 31 32 33 34 35 36 37 38 39 40 41 42 43 44 45 46 47 48 49 50
000
ASUS43 KBIS 241410
RWRND

NORTH DAKOTA REGIONAL WEATHER ROUNDUP
NATIONAL WEATHER SERVICE BISMARCK ND
900 AM CDT MON JUL 24 2017

NOTE: "FAIR" INDICATES FEW OR NO CLOUDS BELOW 12,000 FEET WITH NO
SIGNIFICANT WEATHER AND/OR OBSTRUCTIONS TO VISIBILITY.


NDZ001>003-009>011-017-241500-
NORTHWEST NORTH DAKOTA

CITY           SKY/WX    TMP DP  RH WIND       PRES   REMARKS
WILLISTON      SUNNY     76  57  51 S9        29.76S
MINOT          SUNNY     77  58  51 SE10G22   29.80F
MINOT AFB      SUNNY     75  59  57 S13       29.78F
$$

NDZ018>021-031>035-040>046-241500-
SOUTHWEST NORTH DAKOTA

CITY           SKY/WX    TMP DP  RH WIND       PRES   REMARKS
BISMARCK       CLOUDY    68  61  78 SE9       29.90S
DICKINSON      CLOUDY    71  58  63 SE14      29.82F
GARRISON         N/A     71  61  70 S14       29.84F
HETTINGER ARPT CLOUDY    73  56  54 E10       29.87F
$$

NDZ004>008-012>016-024-026-027-054-241500-
NORTHEAST NORTH DAKOTA

CITY           SKY/WX    TMP DP  RH WIND       PRES   REMARKS
GRAND FORKS    MOSUNNY   69  63  81 S10       29.96F
GRND FRKS AFB  SUNNY     68  62  78 S13       29.97S
DEVILS LAKE    CLOUDY    71  61  70 S13       29.92F
$$

NDZ022-023-025-028>030-036>039-047>053-241500-
SOUTHEAST NORTH DAKOTA

CITY           SKY/WX    TMP DP  RH WIND       PRES   REMARKS
FARGO          SUNNY     68  63  83 S12         N/A
JAMESTOWN      CLOUDY    67  61  81 S12       29.95S
$$




USA.gov is the U.S. government's official web portal to all federal, state and local government web resources and services.